Simultaneous Nadir Overpasses (SNOs) Predictions

Prediction of SNOs between GOES-16 and AQUA Satellite Orbit:

Table of predicted SNOs for the next 14.0 days since TLE Epoch: 4/18/2025
Index Date Time (GOES-16) GOES-16 Lat,Lon AQUA Lat,Lon Distance(km) Time Diff (sec)
1 04/19/2025 08:12:08 -0.03, -79.68 0.73, -83.31 412.77 80
2 04/21/2025 07:49:30 -0.03, -80.67 -0.47, -78.44 252.92 80
3 04/21/2025 20:11:34 0.02, -80.94 -0.44, -83.14 250.39 80
4 04/23/2025 19:48:56 0.02, -81.94 0.84, -78.29 416.68 80
5 04/24/2025 08:10:50 -0.01, -82.20 0.14, -82.94 84.33 80
6 04/26/2025 20:07:33 0.02, -83.47 0.14, -82.76 80.63 80
7 04/27/2025 08:29:28 -0.01, -83.73 0.76, -87.43 420.00 80
8 04/29/2025 08:06:47 -0.02, -84.74 -0.49, -82.55 248.51 80
9 04/29/2025 20:28:48 0.01, -85.01 -0.49, -87.24 254.44 80
10 05/01/2025 20:06:07 0.02, -86.02 0.83, -82.38 415.05 80
11 05/02/2025 08:28:00 -0.01, -86.28 0.16, -87.02 85.07 80
